TimeCDT,TemperatureF,Dew PointF,Humidity,Sea Level PressureIn,VisibilityMPH,Wind Direction,Wind SpeedMPH,Gust SpeedMPH,PrecipitationIn,Events,Conditions,WindDirDegrees,DateUTC
12:52 AM,62.1,60.1,93,29.89,10.0,Calm,Calm,-,N/A,,Clear,0,2012-10-01 05:52:00
1:52 AM,60.1,60.1,100,29.87,9.0,SSW,3.5,-,N/A,,Clear,210,2012-10-01 06:52:00
2:52 AM,60.1,59.0,96,29.86,7.0,South,3.5,-,N/A,,Clear,190,2012-10-01 07:52:00
3:52 AM,61.0,60.1,97,29.87,10.0,Calm,Calm,-,N/A,,Mostly Cloudy,0,2012-10-01 08:52:00
4:52 AM,60.1,60.1,100,29.82,8.0,South,9.2,-,N/A,,Clear,170,2012-10-01 09:52:00
5:52 AM,61.0,60.1,97,29.85,9.0,West,4.6,-,N/A,,Partly Cloudy,260,2012-10-01 10:52:00
6:52 AM,61.0,60.1,97,29.86,9.0,Calm,Calm,-,N/A,,Partly Cloudy,0,2012-10-01 11:52:00
7:50 AM,60.8,59.0,94,29.94,10.0,WNW,6.9,-,N/A,,Mostly Cloudy,300,2012-10-01 12:50:00
7:52 AM,61.0,59.0,93,29.89,10.0,WNW,6.9,-,N/A,,Mostly Cloudy,300,2012-10-01 12:52:00
8:10 AM,60.8,57.2,88,29.94,10.0,NW,5.8,-,N/A,,Scattered Clouds,310,2012-10-01 13:10:00
8:52 AM,63.0,57.9,84,29.90,10.0,NW,6.9,-,N/A,,Clear,320,2012-10-01 13:52:00
9:52 AM,66.0,59.0,78,29.92,10.0,NNW,10.4,-,N/A,,Clear,340,2012-10-01 14:52:00
10:52 AM,69.1,60.1,73,29.93,10.0,North,6.9,-,N/A,,Clear,360,2012-10-01 15:52:00
11:52 AM,72.0,60.1,66,29.92,10.0,NNW,6.9,-,N/A,,Clear,340,2012-10-01 16:52:00
12:52 PM,73.9,57.9,57,29.91,10.0,NNW,6.9,-,N/A,,Partly Cloudy,340,2012-10-01 17:52:00
1:52 PM,-9999,-9999,N/A,29.96,10.0,North,12.7,21.9,N/A,,Clear,360,2012-10-01 18:52:00
2:52 PM,78.1,53.1,42,29.88,10.0,NNW,15.0,23.0,N/A,,Partly Cloudy,340,2012-10-01 19:52:00
3:52 PM,79.0,53.1,40,29.87,10.0,North,17.3,25.3,N/A,,Clear,360,2012-10-01 20:52:00
4:52 PM,80.1,54.0,40,29.86,10.0,North,13.8,-,N/A,,Clear,10,2012-10-01 21:52:00
5:52 PM,77.0,54.0,45,29.87,10.0,NNW,13.8,-,N/A,,Clear,340,2012-10-01 22:52:00
6:52 PM,73.9,55.0,52,29.87,10.0,NNW,6.9,-,N/A,,Partly Cloudy,330,2012-10-01 23:52:00
7:52 PM,73.0,55.9,55,29.90,10.0,NNW,11.5,-,N/A,,Overcast,340,2012-10-02 00:52:00
8:52 PM,71.1,54.0,55,29.92,10.0,North,10.4,-,N/A,,Clear,10,2012-10-02 01:52:00
9:52 PM,66.9,55.0,66,29.95,10.0,NNW,6.9,-,N/A,,Clear,340,2012-10-02 02:52:00
10:52 PM,66.0,55.9,70,29.96,10.0,North,6.9,-,N/A,,Scattered Clouds,350,2012-10-02 03:52:00
11:52 PM,63.0,55.9,78,29.95,10.0,North,5.8,-,N/A,,Clear,350,2012-10-02 04:52:00